Stündliche Wetter Cecenowo

Heute, 25 Januar, Montag

Zeit Temperatur Niederschläge Wind Luftdruck Luftfeuchtigkeit
00:00 -1°C° 0.3 mm 5 m/S 744 mmHg 97%
01:00 -1°C° 0 mm 5 m/S 744 mmHg 98%
02:00 -1°C° 0.2 mm 5 m/S 745 mmHg 98%
03:00 -1°C° 0.2 mm 4 m/S 745 mmHg 98%
04:00 -1°C° 0.2 mm 4 m/S 745 mmHg 97%
05:00 -1°C° 0.4 mm 4 m/S 745 mmHg 97%
06:00 -1°C° 0.4 mm 4 m/S 745 mmHg 97%
07:00 -1°C° 0.4 mm 4 m/S 746 mmHg 96%
08:00 -1°C° 0.2 mm 4 m/S 746 mmHg 96%
09:00 -1°C° 0.2 mm 4 m/S 747 mmHg 96%
10:00 -1°C° 0.2 mm 4 m/S 748 mmHg 96%
11:00 -1°C° 0.1 mm 4 m/S 748 mmHg 95%
12:00 -1°C° 0.1 mm 4 m/S 748 mmHg 94%
13:00 0°C° 0.1 mm 4 m/S 748 mmHg 93%
14:00 0°C° 0 mm 4 m/S 748 mmHg 93%
15:00 -1°C° 0 mm 4 m/S 749 mmHg 92%
16:00 -1°C° 0 mm 4 m/S 749 mmHg 92%
17:00 -1°C° 0.1 mm 4 m/S 749 mmHg 93%
18:00 -1°C° 0.1 mm 4 m/S 749 mmHg 93%
19:00 -1°C° 0.1 mm 4 m/S 750 mmHg 94%
20:00 -1°C° 0.1 mm 4 m/S 750 mmHg 94%
21:00 -1°C° 0.1 mm 4 m/S 750 mmHg 94%
22:00 -1°C° 0.1 mm 4 m/S 750 mmHg 94%
23:00 -1°C° 0.1 mm 4 m/S 750 mmHg 92%

Morgen, 26 Januar, Dienstag

Zeit Temperatur Niederschläge Wind Luftdruck Luftfeuchtigkeit
00:00 -1°C° 0.1 mm 4 m/S 750 mmHg 90%
01:00 -2°C° 0.1 mm 4 m/S 750 mmHg 89%
02:00 -1°C° 0.1 mm 4 m/S 751 mmHg 89%
03:00 -1°C° 0.1 mm 4 m/S 751 mmHg 89%
04:00 -1°C° 0.1 mm 4 m/S 751 mmHg 89%
05:00 -1°C° 0.1 mm 4 m/S 751 mmHg 90%
06:00 -1°C° 0.1 mm 4 m/S 751 mmHg 90%
07:00 -1°C° 0.1 mm 4 m/S 751 mmHg 90%
08:00 -1°C° 0.1 mm 5 m/S 751 mmHg 89%
09:00 -1°C° 0.1 mm 5 m/S 752 mmHg 89%
10:00 -1°C° 0.1 mm 5 m/S 752 mmHg 88%
11:00 -1°C° 0 mm 6 m/S 752 mmHg 85%
12:00 -1°C° 0 mm 6 m/S 752 mmHg 82%
13:00 -1°C° 0 mm 6 m/S 752 mmHg 80%
14:00 -1°C° 0.1 mm 6 m/S 752 mmHg 80%
15:00 -2°C° 0.1 mm 6 m/S 752 mmHg 80%
16:00 -2°C° 0.1 mm 6 m/S 752 mmHg 80%
17:00 -2°C° 0 mm 7 m/S 752 mmHg 81%
18:00 -2°C° 0 mm 7 m/S 753 mmHg 81%
19:00 -2°C° 0 mm 7 m/S 753 mmHg 82%
20:00 -2°C° 0 mm 7 m/S 753 mmHg 81%
21:00 -2°C° 0 mm 6 m/S 753 mmHg 81%
22:00 -2°C° 0 mm 6 m/S 754 mmHg 80%
23:00 -2°C° 0 mm 6 m/S 754 mmHg 81%

übermorgen, 27 Januar, Mittwoch

Zeit Temperatur Niederschläge Wind Luftdruck Luftfeuchtigkeit
00:00 -2°C° 0 mm 6 m/S 754 mmHg 81%
01:00 -2°C° 0 mm 6 m/S 754 mmHg 81%
02:00 -3°C° 0 mm 6 m/S 754 mmHg 82%
03:00 -3°C° 0 mm 6 m/S 754 mmHg 82%
04:00 -3°C° 0 mm 6 m/S 754 mmHg 82%
05:00 -2°C° 0 mm 6 m/S 754 mmHg 84%
06:00 -1°C° 0 mm 5 m/S 754 mmHg 87%
07:00 0°C° 0 mm 5 m/S 755 mmHg 89%
08:00 0°C° 0.2 mm 5 m/S 755 mmHg 89%
09:00 0°C° 0.2 mm 5 m/S 755 mmHg 89%
10:00 0°C° 0.2 mm 5 m/S 755 mmHg 89%
11:00 -1°C° 0.1 mm 6 m/S 755 mmHg 84%
12:00 +1°C° 0.1 mm 6 m/S 755 mmHg 79%
13:00 +1°C° 0.1 mm 6 m/S 755 mmHg 74%
14:00 -1°C° 0 mm 7 m/S 755 mmHg 76%
15:00 -1°C° 0 mm 7 m/S 755 mmHg 77%
16:00 -2°C° 0 mm 7 m/S 755 mmHg 79%
17:00 -2°C° 0 mm 6 m/S 755 mmHg 80%
18:00 -2°C° 0 mm 6 m/S 755 mmHg 81%
19:00 -1°C° 0 mm 5 m/S 755 mmHg 81%
20:00 -2°C° 0 mm 5 m/S 755 mmHg 83%
21:00 -2°C° 0 mm 4 m/S 754 mmHg 84%
22:00 -1°C° 0 mm 3 m/S 754 mmHg 86%
23:00 -1°C° 0.1 mm 3 m/S 754 mmHg 87%

28 Januar, Donnerstag

Zeit Temperatur Niederschläge Wind Luftdruck Luftfeuchtigkeit
00:00 -1°C° 0.1 mm 3 m/S 754 mmHg 89%
01:00 -2°C° 0.1 mm 4 m/S 754 mmHg 91%
02:00 -3°C° 0.1 mm 4 m/S 754 mmHg 90%
03:00 -3°C° 0.1 mm 4 m/S 754 mmHg 90%
04:00 -3°C° 0.1 mm 4 m/S 753 mmHg 89%
05:00 -3°C° 0 mm 4 m/S 753 mmHg 87%
06:00 -2°C° 0 mm 3 m/S 753 mmHg 84%
07:00 -4°C° 0 mm 3 m/S 753 mmHg 82%
08:00 -2°C° 0 mm 3 m/S 753 mmHg 79%
09:00 -2°C° 0 mm 3 m/S 753 mmHg 76%
10:00 -1°C° 0 mm 3 m/S 753 mmHg 73%
11:00 -1°C° 0 mm 3 m/S 753 mmHg 71%
12:00 -1°C° 0 mm 4 m/S 753 mmHg 69%
13:00 -1°C° 0 mm 4 m/S 752 mmHg 68%
14:00 -1°C° 0 mm 3 m/S 752 mmHg 71%
15:00 -1°C° 0 mm 3 m/S 752 mmHg 74%
16:00 -2°C° 0 mm 2 m/S 752 mmHg 78%
17:00 -2°C° 0 mm 2 m/S 752 mmHg 79%
18:00 -2°C° 0 mm 2 m/S 752 mmHg 81%
19:00 -2°C° 0 mm 2 m/S 752 mmHg 82%
20:00 -2°C° 0 mm 2 m/S 752 mmHg 83%
21:00 -2°C° 0 mm 2 m/S 752 mmHg 84%
22:00 -2°C° 0 mm 2 m/S 751 mmHg 85%
23:00 -2°C° 0 mm 3 m/S 751 mmHg 83%

29 Januar, Freitag

Zeit Temperatur Niederschläge Wind Luftdruck Luftfeuchtigkeit
00:00 -3°C° 0 mm 4 m/S 750 mmHg 82%
01:00 -4°C° 0 mm 5 m/S 749 mmHg 80%
02:00 -4°C° 0 mm 5 m/S 748 mmHg 83%
03:00 -4°C° 0 mm 6 m/S 747 mmHg 86%
04:00 -3°C° 0 mm 7 m/S 746 mmHg 89%
05:00 -3°C° 0.6 mm 7 m/S 745 mmHg 90%
06:00 -3°C° 0.6 mm 7 m/S 744 mmHg 91%
07:00 -2°C° 0.6 mm 7 m/S 743 mmHg 93%
08:00 -1°C° 0.7 mm 7 m/S 742 mmHg 94%
09:00 0°C° 0.7 mm 7 m/S 741 mmHg 95%
10:00 +2°C° 0.7 mm 6 m/S 740 mmHg 96%
11:00 +2°C° 0.7 mm 7 m/S 738 mmHg 95%
12:00 +2°C° 0.7 mm 7 m/S 737 mmHg 95%
13:00 +3°C° 0.7 mm 7 m/S 736 mmHg 95%
14:00 +3°C° 1.2 mm 7 m/S 735 mmHg 95%
15:00 +3°C° 1.2 mm 7 m/S 735 mmHg 96%
16:00 +3°C° 1.2 mm 6 m/S 734 mmHg 96%
17:00 +3°C° 0.8 mm 7 m/S 734 mmHg 95%
18:00 +2°C° 0.8 mm 8 m/S 734 mmHg 94%
19:00 +2°C° 0.8 mm 8 m/S 733 mmHg 94%
20:00 +1°C° 0.4 mm 8 m/S 734 mmHg 94%
21:00 +1°C° 0.4 mm 8 m/S 734 mmHg 94%
22:00 0°C° 0.4 mm 8 m/S 735 mmHg 94%
23:00 0°C° 0.2 mm 8 m/S 736 mmHg 94%

30 Januar, Samstag

Zeit Temperatur Niederschläge Wind Luftdruck Luftfeuchtigkeit
00:00 -1°C° 0.2 mm 9 m/S 737 mmHg 93%
01:00 -3°C° 0.2 mm 9 m/S 738 mmHg 93%
02:00 -4°C° 0.3 mm 9 m/S 739 mmHg 92%
03:00 -4°C° 0.3 mm 10 m/S 741 mmHg 90%
04:00 -5°C° 0.3 mm 10 m/S 742 mmHg 89%
05:00 -5°C° 0.3 mm 10 m/S 743 mmHg 87%
06:00 -5°C° 0.3 mm 9 m/S 744 mmHg 85%
07:00 -5°C° 0.3 mm 9 m/S 745 mmHg 83%
08:00 -5°C° 0.1 mm 9 m/S 745 mmHg 78%
09:00 -5°C° 0.1 mm 9 m/S 746 mmHg 74%
10:00 -5°C° 0.1 mm 9 m/S 746 mmHg 70%
11:00 -5°C° 0 mm 9 m/S 747 mmHg 69%
12:00 -5°C° 0 mm 9 m/S 747 mmHg 69%
13:00 -5°C° 0 mm 9 m/S 747 mmHg 68%
14:00 -5°C° 0 mm 8 m/S 747 mmHg 68%
15:00 -5°C° 0 mm 8 m/S 748 mmHg 69%
16:00 -5°C° 0 mm 8 m/S 748 mmHg 69%
17:00 -6°C° 0 mm 7 m/S 748 mmHg 70%
18:00 -6°C° 0 mm 7 m/S 749 mmHg 71%
19:00 -6°C° 0 mm 7 m/S 749 mmHg 72%
20:00 -5°C° 0 mm 6 m/S 749 mmHg 72%
21:00 -4°C° 0 mm 6 m/S 749 mmHg 73%
22:00 -4°C° 0 mm 6 m/S 750 mmHg 74%
23:00 -4°C° 0 mm 7 m/S 750 mmHg 74%
Mehr zeigen

Wir brauchen deine Erlaubnis

Meteoprog und unser Service Anbieter werden persönliche Daten aufbewahren, so wie Cookies, Geräte Bezeichnung oder ähnliche Technologien von deinem Gerät und Prozess, so wie Persönliche Daten Inhalte und Werbungen, genauso wie social Media und den Verkehr zu analysieren.

  • Aufbewahrung und/oder Zugang zu deiner Geräte Informationen.

    Cookies, Geräte Bezeichnung oder andere Informationen, können aufbewahrt oder Zugang zu deinem Gerät erhalten, für den Grund, der oben angegeben wird.

  • Personalisierte Werbung und Inhalte, Messungen, Einblick in das Publikum und Produkt Entwicklung.

    Werbungen und Inhalte können personalisiert werden, basierend auf ein Profil. Mehr Daten können besser personalisierte Werbungen und Inhalte hinzufügen. Werbung und Inhalte können gezeigt und gemessen werden. Einblicke über das Publikum, welche die Werbung gesehen haben und den Inhalt, können abgeleitet werden. So wie Daten können genutzt werden, um es zu verbessern oder die Benutzer Erfahrung zu verbessern das System und die Software.

Wenn du “Ich stimme zu” klickst, erlaubst du uns, die Cookies zu benutzen die Geräte Bezeichnung, den Web oder ähnliche Technologien zu benutzen. Deine Settings, können in deinem Gerät bei deinem Browser geändert werden.

Für den bestimmten Zweck, berechtigten Interessen beruhen darauf, mehr als auf den Inhalt. Du kannst mehr darüber in unseren Privaten und Cookie Politik lesen.